WAT5542 ENJS-ENZV

Flight info

Callsign WAT5542
Flight time 0h 50m
Altitude 3500
Route DCT
Aircraft A109/H-V/N

Departure

Time 2026-04-28 09:40
Airport Johan Sverdrup Helipad (ENJS)

Arrival

Time 2026-04-28 10:31
Airport Stavanger Airport, Sola (ENZV)
Time Latitude Longitude Altitude Speed Heading
2026-04-28 09:36 58.83607 2.55463 151 ft 0 kts 352°
2026-04-28 09:39 58.83592 2.55461 164 ft 4 kts
2026-04-28 09:39 58.83565 2.55469 199 ft 8 kts 54°
2026-04-28 09:40 58.83481 2.55646 260 ft 22 kts 91°
2026-04-28 09:40 58.83447 2.56228 482 ft 63 kts 89°
2026-04-28 09:40 58.83364 2.57185 799 ft 85 kts 103°
2026-04-28 09:40 58.83476 2.58432 892 ft 105 kts 61°
2026-04-28 09:41 58.83718 2.59878 1008 ft 119 kts 80°
2026-04-28 09:41 58.83740 2.61470 1195 ft 117 kts 85°
2026-04-28 09:41 58.83771 2.63020 1371 ft 116 kts 83°
2026-04-28 09:41 58.83812 2.64593 1550 ft 117 kts 84°
2026-04-28 09:42 58.83848 2.66162 1730 ft 118 kts 84°
2026-04-28 09:42 58.83886 2.67756 1911 ft 118 kts 83°
2026-04-28 09:42 58.83921 2.69340 2090 ft 118 kts 84°
2026-04-28 09:42 58.83962 2.70941 2271 ft 119 kts 83°
2026-04-28 09:43 58.83977 2.71604 2346 ft 119 kts 83°
2026-04-28 09:43 58.84014 2.73197 2527 ft 118 kts 83°
2026-04-28 09:43 58.84051 2.74769 2704 ft 118 kts 83°
2026-04-28 09:43 58.84088 2.76373 2885 ft 119 kts 83°
2026-04-28 09:44 58.84123 2.77955 3063 ft 119 kts 83°
2026-04-28 09:44 58.84156 2.79558 3243 ft 119 kts 83°
2026-04-28 09:44 58.84192 2.81173 3367 ft 120 kts 82°
2026-04-28 09:44 58.84228 2.82794 3415 ft 120 kts 82°
2026-04-28 09:45 58.84265 2.84405 3436 ft 120 kts 82°
2026-04-28 09:45 58.84302 2.86019 3445 ft 121 kts 82°
2026-04-28 09:45 58.84338 2.87635 3448 ft 121 kts 82°
2026-04-28 09:45 58.84376 2.89258 3449 ft 121 kts 82°
2026-04-28 09:46 58.84414 2.90882 3450 ft 121 kts 82°
2026-04-28 09:46 58.84447 2.92508 3451 ft 121 kts 82°
2026-04-28 09:46 58.84481 2.94124 3450 ft 121 kts 82°
2026-04-28 09:46 58.84517 2.95747 3450 ft 121 kts 81°
2026-04-28 09:47 58.84549 2.97362 3451 ft 120 kts 82°
2026-04-28 09:47 58.84586 2.98983 3450 ft 120 kts 81°
2026-04-28 09:47 58.84624 3.00590 3450 ft 120 kts 82°
2026-04-28 09:47 58.84661 3.02199 3450 ft 120 kts 83°
2026-04-28 09:48 58.84694 3.03807 3451 ft 120 kts 82°
2026-04-28 09:48 58.84726 3.05427 3448 ft 120 kts 82°
2026-04-28 09:48 58.84760 3.07038 3449 ft 121 kts 82°
2026-04-28 09:48 58.84795 3.08664 3448 ft 121 kts 81°
2026-04-28 09:49 58.84828 3.10306 3449 ft 121 kts 82°
2026-04-28 09:49 58.84862 3.11915 3448 ft 121 kts 82°
2026-04-28 09:49 58.84896 3.13537 3447 ft 120 kts 81°
2026-04-28 09:49 58.84925 3.15150 3446 ft 120 kts 82°
2026-04-28 09:50 58.84959 3.16761 3448 ft 120 kts 81°
2026-04-28 09:50 58.84993 3.18370 3449 ft 120 kts 82°
2026-04-28 09:50 58.85027 3.19988 3448 ft 120 kts 82°
2026-04-28 09:50 58.85060 3.21612 3447 ft 119 kts 82°
2026-04-28 09:51 58.85094 3.23203 3447 ft 119 kts 82°
2026-04-28 09:51 58.85123 3.24821 3445 ft 120 kts 82°
2026-04-28 09:51 58.85155 3.26448 3445 ft 120 kts 82°
2026-04-28 09:51 58.85188 3.28057 3446 ft 121 kts 82°
2026-04-28 09:52 58.85218 3.29690 3448 ft 121 kts 82°
2026-04-28 09:52 58.85250 3.31318 3448 ft 121 kts 82°
2026-04-28 09:52 58.85281 3.32920 3448 ft 120 kts 82°
2026-04-28 09:52 58.85313 3.34549 3449 ft 121 kts 82°
2026-04-28 09:53 58.85341 3.36188 3450 ft 121 kts 82°
2026-04-28 09:53 58.85372 3.37796 3450 ft 121 kts 82°
2026-04-28 09:53 58.85406 3.39428 3450 ft 121 kts 82°
2026-04-28 09:53 58.85221 3.41048 3452 ft 125 kts 103°
2026-04-28 09:54 58.84919 3.42644 3451 ft 125 kts 104°
2026-04-28 09:54 58.84610 3.44212 3451 ft 125 kts 105°
2026-04-28 09:54 58.84298 3.45778 3450 ft 125 kts 105°
2026-04-28 09:54 58.83981 3.47362 3450 ft 125 kts 105°
2026-04-28 09:55 58.83675 3.48918 3450 ft 125 kts 104°
2026-04-28 09:55 58.83361 3.50507 3449 ft 125 kts 104°
2026-04-28 09:55 58.83051 3.52065 3450 ft 126 kts 105°
2026-04-28 09:55 58.82737 3.53650 3451 ft 126 kts 104°
2026-04-28 09:56 58.82424 3.55233 3450 ft 126 kts 105°
2026-04-28 09:56 58.82153 3.56813 3451 ft 125 kts 101°
2026-04-28 09:56 58.81874 3.58418 3446 ft 127 kts 111°
2026-04-28 09:56 58.81376 3.59853 3449 ft 128 kts 118°
2026-04-28 09:57 58.81158 3.61430 3454 ft 120 kts 83°
2026-04-28 09:57 58.81166 3.63038 3449 ft 120 kts 85°
2026-04-28 09:57 58.81124 3.64652 3451 ft 122 kts 88°
2026-04-28 09:57 58.81070 3.66300 3451 ft 122 kts 88°
2026-04-28 09:58 58.81024 3.67940 3450 ft 121 kts 87°
2026-04-28 09:58 58.80981 3.69569 3446 ft 121 kts 87°
2026-04-28 09:58 58.80936 3.71203 3443 ft 122 kts 88°
2026-04-28 09:58 58.80890 3.72842 3441 ft 122 kts 87°
2026-04-28 09:59 58.80846 3.74482 3438 ft 122 kts 87°
2026-04-28 09:59 58.80798 3.76105 3435 ft 122 kts 87°
2026-04-28 09:59 58.80754 3.77740 3433 ft 122 kts 87°
2026-04-28 09:59 58.80710 3.79371 3433 ft 122 kts 87°
2026-04-28 10:00 58.80662 3.80985 3433 ft 121 kts 87°
2026-04-28 10:00 58.80618 3.82629 3434 ft 121 kts 87°
2026-04-28 10:00 58.80572 3.84262 3433 ft 122 kts 87°
2026-04-28 10:00 58.80527 3.85902 3432 ft 122 kts 87°
2026-04-28 10:01 58.80478 3.87539 3433 ft 122 kts 87°
2026-04-28 10:01 58.80431 3.89172 3436 ft 122 kts 87°
2026-04-28 10:01 58.80383 3.90794 3441 ft 122 kts 87°
2026-04-28 10:01 58.80336 3.92429 3445 ft 122 kts 87°
2026-04-28 10:02 58.80290 3.94058 3448 ft 122 kts 87°
2026-04-28 10:02 58.80243 3.95695 3449 ft 122 kts 86°
2026-04-28 10:02 58.80196 3.97339 3450 ft 122 kts 87°
2026-04-28 10:02 58.80146 3.98979 3450 ft 122 kts 87°
2026-04-28 10:03 58.80099 4.00619 3449 ft 122 kts 87°
2026-04-28 10:03 58.80051 4.02237 3448 ft 122 kts 87°
2026-04-28 10:03 58.80004 4.03876 3448 ft 122 kts 87°
2026-04-28 10:03 58.79955 4.05513 3449 ft 122 kts 87°
2026-04-28 10:04 58.79904 4.07157 3448 ft 122 kts 87°
2026-04-28 10:04 58.79852 4.08794 3447 ft 122 kts 86°
2026-04-28 10:04 58.79803 4.10437 3448 ft 122 kts 86°
2026-04-28 10:04 58.79751 4.12077 3447 ft 122 kts 86°
2026-04-28 10:05 58.79700 4.13705 3447 ft 122 kts 86°
2026-04-28 10:05 58.79654 4.15352 3447 ft 122 kts 86°
2026-04-28 10:05 58.79606 4.16989 3447 ft 122 kts 87°
2026-04-28 10:05 58.79553 4.18623 3446 ft 122 kts 87°
2026-04-28 10:06 58.79508 4.20233 3447 ft 122 kts 87°
2026-04-28 10:06 58.79454 4.21862 3447 ft 122 kts 87°
2026-04-28 10:06 58.79400 4.23497 3447 ft 122 kts 87°
2026-04-28 10:06 58.79350 4.25131 3445 ft 122 kts 87°
2026-04-28 10:07 58.79297 4.26774 3444 ft 122 kts 86°
2026-04-28 10:07 58.79246 4.28388 3440 ft 121 kts 87°
2026-04-28 10:07 58.79195 4.30011 3438 ft 121 kts 87°
2026-04-28 10:07 58.79145 4.31637 3435 ft 121 kts 86°
2026-04-28 10:08 58.79091 4.33268 3433 ft 122 kts 87°
2026-04-28 10:08 58.79039 4.34913 3432 ft 122 kts 87°
2026-04-28 10:08 58.78988 4.36535 3432 ft 122 kts 86°
2026-04-28 10:08 58.78937 4.38172 3430 ft 122 kts 87°
2026-04-28 10:09 58.78884 4.39810 3430 ft 122 kts 87°
2026-04-28 10:09 58.78828 4.41443 3429 ft 122 kts 87°
2026-04-28 10:09 58.78777 4.43062 3429 ft 122 kts 87°
2026-04-28 10:09 58.78723 4.44697 3430 ft 122 kts 87°
2026-04-28 10:10 58.78667 4.46334 3429 ft 122 kts 86°
2026-04-28 10:10 58.78613 4.47968 3429 ft 122 kts 86°
2026-04-28 10:10 58.78558 4.49624 3429 ft 123 kts 87°
2026-04-28 10:10 58.78506 4.51249 3429 ft 123 kts 86°
2026-04-28 10:11 58.78448 4.52909 3430 ft 123 kts 87°
2026-04-28 10:11 58.78392 4.54574 3432 ft 123 kts 87°
2026-04-28 10:11 58.78339 4.56223 3434 ft 123 kts 87°
2026-04-28 10:11 58.78285 4.57856 3437 ft 123 kts 87°
2026-04-28 10:12 58.78228 4.59511 3438 ft 123 kts 87°
2026-04-28 10:12 58.78171 4.61156 3438 ft 123 kts 87°
2026-04-28 10:12 58.78114 4.62786 3437 ft 122 kts 87°
2026-04-28 10:12 58.78056 4.64432 3437 ft 122 kts 87°
2026-04-28 10:13 58.77993 4.66075 3437 ft 123 kts 88°
2026-04-28 10:13 58.77938 4.67713 3439 ft 122 kts 87°
2026-04-28 10:13 58.77879 4.69358 3438 ft 122 kts 88°
2026-04-28 10:13 58.77821 4.70995 3438 ft 122 kts 87°
2026-04-28 10:14 58.77767 4.72619 3438 ft 122 kts 88°
2026-04-28 10:14 58.77709 4.74250 3437 ft 123 kts 88°
2026-04-28 10:14 58.77652 4.75909 3437 ft 123 kts 87°
2026-04-28 10:14 58.77595 4.77557 3436 ft 123 kts 88°
2026-04-28 10:15 58.77536 4.79217 3435 ft 123 kts 88°
2026-04-28 10:15 58.77474 4.80876 3435 ft 123 kts 88°
2026-04-28 10:15 58.77413 4.82512 3435 ft 122 kts 88°
2026-04-28 10:15 58.77353 4.84151 3434 ft 122 kts 88°
2026-04-28 10:16 58.77297 4.85778 3434 ft 122 kts 88°
2026-04-28 10:16 58.77238 4.87421 3433 ft 122 kts 88°
2026-04-28 10:16 58.77178 4.89062 3434 ft 122 kts 88°
2026-04-28 10:16 58.77119 4.90698 3433 ft 122 kts 88°
2026-04-28 10:17 58.77062 4.92326 3432 ft 122 kts 88°
2026-04-28 10:17 58.77002 4.93980 3430 ft 123 kts 88°
2026-04-28 10:17 58.76942 4.95636 3430 ft 124 kts 88°
2026-04-28 10:17 58.76879 4.97301 3430 ft 124 kts 88°
2026-04-28 10:18 58.76817 4.98948 3431 ft 125 kts 88°
2026-04-28 10:18 58.76753 5.00620 3430 ft 124 kts 87°
2026-04-28 10:18 58.76688 5.02288 3429 ft 124 kts 88°
2026-04-28 10:18 58.76625 5.03943 3429 ft 124 kts 87°
2026-04-28 10:19 58.76564 5.05611 3427 ft 124 kts 88°
2026-04-28 10:19 58.76508 5.07279 3430 ft 124 kts 88°
2026-04-28 10:19 58.76447 5.08930 3429 ft 123 kts 88°
2026-04-28 10:19 58.76382 5.10556 3431 ft 123 kts 88°
2026-04-28 10:20 58.76321 5.12214 3428 ft 123 kts 88°
2026-04-28 10:20 58.76259 5.13845 3428 ft 124 kts 88°
2026-04-28 10:20 58.76194 5.15538 3428 ft 124 kts 89°
2026-04-28 10:20 58.76129 5.17188 3435 ft 125 kts 88°
2026-04-28 10:21 58.76065 5.18862 3440 ft 125 kts 88°
2026-04-28 10:21 58.76001 5.20535 3437 ft 125 kts 88°
2026-04-28 10:21 58.75932 5.22209 3433 ft 124 kts 88°
2026-04-28 10:21 58.75867 5.23859 3428 ft 124 kts 88°
2026-04-28 10:22 58.75803 5.25528 3425 ft 124 kts 88°
2026-04-28 10:22 58.75742 5.27170 3431 ft 124 kts 88°
2026-04-28 10:22 58.75682 5.28834 3254 ft 125 kts 88°
2026-04-28 10:22 58.75623 5.30500 3009 ft 125 kts 89°
2026-04-28 10:23 58.75560 5.32156 2789 ft 124 kts 90°
2026-04-28 10:23 58.75500 5.33815 2560 ft 123 kts 90°
2026-04-28 10:23 58.75438 5.35454 2333 ft 122 kts 90°
2026-04-28 10:23 58.75373 5.37065 2102 ft 122 kts 90°
2026-04-28 10:24 58.75310 5.38685 1872 ft 121 kts 90°
2026-04-28 10:24 58.75243 5.40315 1638 ft 121 kts 90°
2026-04-28 10:24 58.75182 5.41921 1404 ft 122 kts 91°
2026-04-28 10:24 58.75120 5.43567 1207 ft 123 kts 92°
2026-04-28 10:25 58.75055 5.45216 1132 ft 123 kts 92°
2026-04-28 10:25 58.75054 5.46884 1100 ft 122 kts 81°
2026-04-28 10:25 58.75393 5.48325 1083 ft 118 kts 44°
2026-04-28 10:25 58.76074 5.49134 1075 ft 115 kts 20°
2026-04-28 10:26 58.76826 5.49684 1074 ft 116 kts 18°
2026-04-28 10:26 58.77581 5.50273 1074 ft 117 kts 20°
2026-04-28 10:26 58.78339 5.50872 1074 ft 116 kts 19°
2026-04-28 10:26 58.79081 5.51455 1074 ft 115 kts 20°
2026-04-28 10:27 58.79823 5.52039 1072 ft 115 kts 20°
2026-04-28 10:27 58.80571 5.52629 1070 ft 116 kts 20°
2026-04-28 10:27 58.81321 5.53221 1069 ft 116 kts 20°
2026-04-28 10:27 58.82068 5.53810 1067 ft 116 kts 19°
2026-04-28 10:28 58.82814 5.54401 1065 ft 115 kts 20°
2026-04-28 10:28 58.83526 5.55140 1064 ft 117 kts 32°
2026-04-28 10:28 58.84124 5.56228 1064 ft 119 kts 46°
2026-04-28 10:29 58.85157 5.58577 989 ft 107 kts 44°
2026-04-28 10:29 58.85639 5.59604 872 ft 98 kts 44°
2026-04-28 10:29 58.86063 5.60551 735 ft 85 kts 46°
2026-04-28 10:29 58.86411 5.61302 642 ft 69 kts 42°
2026-04-28 10:30 58.86729 5.61897 533 ft 57 kts 41°
2026-04-28 10:30 58.87006 5.62368 488 ft 50 kts 35°
2026-04-28 10:30 58.87264 5.62811 418 ft 50 kts 39°
2026-04-28 10:30 58.87518 5.63297 340 ft 53 kts 38°
2026-04-28 10:31 58.87769 5.63775 222 ft 42 kts 25°
2026-04-28 10:31 58.87931 5.63982 131 ft 17 kts 13°
2026-04-28 10:31 58.87994 5.64059 82 ft 8 kts
2026-04-28 10:31 58.88033 5.64095 42 ft 3 kts 357°
2026-04-28 10:32 58.88037 5.64106 35 ft 0 kts 299°
2026-04-28 10:32 58.88038 5.64103 31 ft 0 kts 282°
2026-04-28 10:32 58.88038 5.64102 28 ft 0 kts 282°